User: anonymous   Login
Location: Unspecified
(0.0000°N, 0.0000°E)
Time: 19:42:11
(UTC+00:00)
Language:

SSETI-EXPRESS - Orbit

View from above orbital plane
View from above orbital plane
View from above satellite
View from above satellite

Ground track
Ground track

The orbit data is extracted from the following two-line orbital elements,

1 28894U 05043E   18350.96059591  .00000031  00000-0  15450-4 0  9997
2 28894  97.9555 129.6788 0016082 230.1989 129.7797 14.61554092700346
Epoch (UTC): 16 December 2018 23:03:15
Eccentricity: 0.0016082
inclination: 97.9555°
perigee height: 677 km
apogee height: 699 km
right ascension of ascending node: 129.6788°
argument of perigee: 230.1989°
revolutions per day: 14.61554092
mean anomaly at epoch: 129.7797°
orbit number at epoch: 70034

The dashed part of the orbit path shows where the satellite is in the earth's shadow,  

DLR